#timestamp,LO_Frequency,Hit,StdDev 
1644073215.8,286046996.5,N
1644073235.6,286047000.4,N
1644073255.5,286046999.0,N
1644073275.3,286046999.1,N
1644073295.2,286046997.2,N
1644073315.9,286046997.0,N
1644073335.7,286046998.6,N
1644073355.6,286047001.7,N
1644073375.4,286047002.6,N
1644073395.2,286047003.2,N
1644073415.1,286047005.9,N
1644073416.0,286047005.9,N
1644073435.8,286047004.1,N
1644073455.7,286047007.3,N
1644073475.5,286047002.9,N
1644073495.3,286047002.0,N
1644073515.2,286047003.6,N
1644073535.0,286047003.1,N
1644073535.9,286047003.1,N
1644073555.7,286047001.8,N
1644073575.6,286047003.1,N
1644073595.4,286047004.7,N
1644073615.3,286047005.6,N
1644073635.1,286047003.1,N
1644073636.0,286047003.1,N
1644073655.8,286047003.0,N
1644073675.7,286047007.1,N
1644073695.5,286047007.5,N
1644073715.4,286047007.4,N
1644073735.2,286047007.1,N
1644073755.0,286047006.2,N
1644073755.9,286047006.2,N
1644073775.8,286047008.0,N
1644073795.6,286047009.8,Y
1644073815.4,286047007.6,P
1644073835.3,286047003.6,N
1644073855.1,286047007.1,P
1644073875.9,286047003.0,N
1644073895.7,286047005.2,N
1644073915.5,286047005.5,Y
1644073935.4,286047000.1,P
1644073955.2,286046999.6,N
1644073975.0,286047001.6,N
1644073975.9,286047001.6,N
1644073995.8,286047002.5,N
1644074015.6,286047003.4,N
1644074035.5,286047001.7,N
1644074055.3,286047001.9,N
1644074075.1,286046999.8,N
1644074095.9,286047004.2,N
1644074115.7,286047005.5,Y
1644074135.5,286047002.4,P
1644074155.4,286047000.4,N
1644074175.2,286047000.1,N
1644074195.1,286046998.1,N
1644074196.0,286046998.1,N
1644074215.8,286046997.4,N
1644074235.6,286046994.6,N
1644074255.5,286046996.4,N
1644074275.3,286046997.0,N
1644074295.1,286046998.5,N
1644074315.9,286046995.0,N
1644074335.7,286046993.8,N
1644074355.6,286046996.3,N
1644074375.4,286046993.7,N
1644074395.2,286046993.4,N
1644074415.1,286047002.5,N
1644074416.0,286047002.5,N
1644074435.8,286047004.4,N
1644074455.6,286047002.5,N
1644074475.5,286047002.0,N
1644074495.3,286046999.9,N
1644074515.2,286047000.6,N
1644074535.9,286047000.5,N
1644074555.7,286047000.6,N
1644074575.6,286047004.0,N
1644074595.4,286047000.9,N
1644074615.2,286047000.1,N
1644074635.1,286047001.8,N
1644074636.0,286047001.8,N
1644074655.8,286047000.0,N
1644074675.7,286047002.0,N
1644074695.5,286047005.8,N
1644074715.3,286047003.3,N
1644074735.2,286047004.0,N
1644074755.0,286047002.0,N
1644074755.9,286047002.0,N
1644074775.7,286047002.4,N
1644074795.6,286047001.1,N
1644074815.4,286047001.6,N
1644074835.3,286046999.8,N
1644074855.1,286047004.3,N
1644074856.0,286047004.3,N
1644074875.8,286047002.0,N
1644074895.7,286047002.6,N
1644074915.5,286047002.5,N
1644074935.4,286047000.9,N
1644074955.2,286047000.7,N
1644074975.0,286047002.8,N
1644074975.9,286047002.8,N
1644074995.8,286046996.5,N
1644075015.6,286046997.6,N
1644075035.4,286046997.3,N
1644075055.3,286046997.3,N
1644075075.1,286046999.4,N
1644075095.9,286047000.5,N
1644075145.7,286047000.5,E
1644075155.6,286046998.7,N
1644075175.5,286047001.2,P
1644075195.3,286047000.8,N
1644075215.2,286047000.3,N
1644075235.9,286046998.4,N
1644075255.7,286046999.1,N
1644075275.6,286047000.7,N
1644075295.4,286046998.9,N
1644075315.2,286047000.7,N
1644075335.1,286046998.1,N
1644075336.0,286046998.1,N
1644075355.8,286046997.0,N
1644075375.7,286046996.8,N
1644075395.5,286046997.1,N
1644075415.3,286046996.9,N
1644075435.2,286046998.5,N
1644075455.0,286047000.7,N
1644075455.9,286047000.7,N
1644075475.7,286046999.1,N
1644075495.6,286047001.0,N
1644075515.4,286046999.0,N
1644075535.3,286047001.2,N
1644075555.1,286046999.0,N
1644075556.0,286046999.0,N
1644075575.8,286046995.0,Y
1644075595.7,286046996.6,P
1644075615.5,286046998.9,N
1644075635.3,286046995.8,P
1644075655.2,286046997.8,N
1644075675.0,286046995.5,Y
1644075675.9,286046995.5,P
1644075695.8,286046996.2,P
1644075715.6,286046996.0,P
1644075735.4,286046997.8,N
1644075755.3,286046999.7,N
1644075775.1,286047005.6,Y
1644075795.9,286047006.1,P
1644075815.7,286047003.5,N
1644075835.5,286047004.2,N
1644075855.4,286047005.7,N
1644075875.2,286047006.7,N
1644075895.0,286047006.8,N
1644075895.9,286047006.8,N
1644075915.8,286047002.9,N
1644075935.6,286047005.1,N
1644075955.5,286047007.4,N
1644075975.3,286047007.6,N
1644075995.1,286047005.2,N
1644076015.9,286047009.1,Y
1644076035.7,286047002.6,P
1644076055.6,286047002.7,N
1644076075.4,286047002.5,N
1644076095.2,286047000.5,N
1644076115.1,286046999.8,N
1644076116.0,286046999.8,N
1644076135.8,286047002.9,N
1644076155.6,286047005.7,Y
1644076175.5,286047001.7,P
1644076195.3,286047001.9,P
1644076215.2,286047001.8,P
1644076235.9,286047000.2,N
1644076255.7,286047000.6,N
1644076275.6,286047001.3,N
1644076295.4,286047002.6,Y
1644076315.2,286047003.2,P
1644076335.1,286047007.5,P
1644076336.0,286047007.5,N
1644076355.8,286047007.6,N
1644076375.7,286047003.6,N
1644076395.5,286047003.5,N
1644076415.3,286047003.8,N
1644076435.2,286047002.3,N
1644076455.0,286047001.9,N
1644076455.9,286047001.9,N
1644076475.7,286047002.7,N
1644076495.6,286047002.6,N
1644076515.4,286047003.8,N
1644076535.3,286047003.2,N
1644076555.1,286047005.4,N
1644076575.8,286047004.0,N
1644076595.7,286047000.0,N
1644076615.5,286046998.4,N
1644076635.3,286046997.6,N
1644076655.2,286046995.5,N
1644076675.0,286046995.5,N
1644076675.9,286046995.5,N
1644076695.8,286046997.3,N
1644076715.6,286047000.9,N
1644076735.4,286046997.3,N
1644076755.3,286046996.9,N
1644076775.1,286046998.2,N
1644076795.8,286046998.7,N
